[[{"header":{"parameterUnit":"m.s-1","parameterCategory":1,"la1":30.2991,"la2":30.254,"lo1":-89.0895,"lo2":-89.0444,"dx":0.0017,"dy":0.0017,"nx":28,"ny":28,"refTime":"2022-12-03T09:00:00:Z","depth":0,"parameterNumber":2,"parameterNumberName":"U-component_of_WINDS"},"data":[0,0,0,0,0,0,0,0,0,0,0,0,0,0,0,0,0,0,0,0,0,0,0,0,0,0,0,0,0,0,0,0,0,0,0,0,0,0,0,0,0,0,0,0,0,0,0,0,0,0,0,0,0,0,0,0,0,0,-0.6072,-0.6072,0,-0.6085,-0.6085,-0.6085,-0.6064,-0.6063,-0.6062,-0.6062,-0.6075,-0.6077,-0.6078,0,0,0,0,0,0,0,0,0,0,0,0,0,-0.6031,-0.6032,-0.6072,-0.6072,-0.6072,-0.6085,-0.6085,-0.6085,-0.6064,-0.6063,-0.6062,-0.6061,-0.6075,-0.6076,-0.6078,0,0,0,0,0,0,0,0,0,0,0,0,0,-0.6047,-0.6032,-0.6072,-0.6063,-0.6063,-0.6085,-0.6085,-0.6085,-0.6064,-0.6063,-0.6062,-0.6061,-0.6075,-0.6076,-0.6078,-0.611,0,0,-0.6083,-0.6083,0,0,0,0,0,0,0,0,-0.6046,-0.6049,-0.6064,-0.6064,-0.6063,-0.6072,-0.6076,-0.6094,-0.6064,-0.6063,-0.6061,-0.606,-0.6075,-0.6077,-0.6081,-0.611,-0.6111,-0.6083,-0.6084,-0.6084,-0.6085,0,0,0,0,0,0,0,-0.6045,-0.6048,-0.6077,-0.6065,-0.6064,-0.6059,-0.606,-0.6079,-0.6075,-0.6063,-0.6062,-0.6064,-0.6075,-0.608,-0.6082,-0.6111,-0.6083,-0.6084,-0.6085,-0.6086,-0.6169,-0.617,0,0,0,0,0,0,-0.6045,-0.6047,-0.6077,-0.6078,-0.6052,-0.6061,-0.6062,-0.607,-0.6075,-0.6075,-0.6065,-0.6063,-0.6078,-0.608,-0.6082,-0.612,-0.6084,-0.6086,-0.6087,-0.6167,-0.6169,-0.617,0,0,0,0,0,0,-0.6044,-0.6048,-0.6076,-0.6062,-0.6065,-0.6063,-0.6072,-0.6071,-0.6076,-0.6076,-0.6075,-0.6071,-0.6077,-0.608,-0.6103,-0.612,-0.6087,-0.6088,-0.6166,-0.6168,-0.6169,-0.6196,0,0,0,0,0,0,-0.6043,-0.6048,-0.6059,-0.6062,-0.6066,-0.6097,-0.6073,-0.6072,-0.6079,-0.6076,-0.6081,-0.6081,-0.6076,-0.6101,-0.6105,-0.6122,-0.6089,-0.6164,-0.6167,-0.6169,-0.6194,-0.6199,-0.6203,0,0,0,0,0,-0.6042,-0.6066,-0.606,-0.6063,-0.608,-0.6098,-0.61,-0.6093,-0.608,-0.6092,-0.6092,-0.6081,-0.6118,-0.6104,-0.6108,-0.6126,-0.6163,-0.6166,-0.6169,-0.6192,-0.6198,-0.6203,0,0,0,0,0,0,-0.6064,-0.6066,-0.6059,-0.6085,-0.6091,-0.6094,-0.6108,-0.61,-0.611,-0.6107,-0.61,-0.6101,-0.6126,-0.6128,-0.6112,-0.6158,-0.6139,-0.6142,-0.6155,-0.6161,-0.6165,-0.6164,-0.6091,0,0,0,0,0,-0.6073,-0.6086,-0.6087,-0.611,-0.6114,-0.6111,-0.6118,-0.6113,-0.6119,-0.6122,-0.6123,-0.613,-0.6144,-0.6152,-0.6165,-0.6195,-0.6196,-0.6209,-0.6214,-0.6218,-0.6221,-0.6238,-0.6244,-0.6179,-0.6179,-0.6179,0,0,-0.6089,-0.6092,-0.6101,-0.6115,-0.6119,-0.6134,-0.6113,-0.6129,-0.614,-0.6124,-0.6146,-0.6148,-0.6156,-0.6183,-0.6195,-0.6185,-0.6239,-0.6221,-0.6224,-0.6225,-0.6242,-0.6248,-0.6253,-0.6181,-0.6181,-0.6181,0,0,-0.6127,-0.613,-0.615,-0.6155,-0.6162,-0.616,-0.6165,-0.6169,-0.617,-0.6192,-0.6181,-0.6195,-0.6217,-0.6223,-0.6229,-0.6272,-0.6262,-0.6277,-0.63,-0.6317,-0.6322,-0.6327,-0.6342,-0.6348,-0.628,-0.628,-0.628,0,-0.6147,-0.6168,-0.6161,-0.6179,-0.6186,-0.6172,-0.6193,-0.6198,-0.6209,-0.6214,-0.6204,-0.6233,-0.6237,-0.6266,-0.6277,-0.6282,-0.6288,-0.6275,-0.6322,-0.6327,-0.6331,-0.6345,-0.6351,-0.6282,-0.6281,-0.6281,-0.6281,0,-0.6192,-0.6207,-0.6223,-0.6233,-0.6242,-0.6261,-0.6258,-0.6268,-0.6263,-0.6263,-0.6287,-0.6291,-0.6305,-0.6312,-0.6306,-0.634,-0.6334,-0.6323,-0.6304,-0.6339,-0.6352,-0.6358,-0.6284,-0.6283,-0.6283,-0.6282,0,0,-0.6242,-0.6251,-0.6256,-0.6262,-0.6269,-0.6281,-0.6301,-0.6314,-0.6323,-0.6331,-0.6347,-0.6368,-0.6358,-0.6365,-0.6361,-0.6376,-0.641,-0.6363,-0.6363,-0.6372,-0.6449,-0.6457,-0.6463,-0.6405,-0.6406,-0.6407,-0.6448,0,-0.628,-0.6312,-0.6308,-0.6339,-0.6354,-0.6342,-0.6359,-0.6366,-0.6367,-0.6381,-0.6382,-0.6397,-0.6383,-0.6387,-0.6401,-0.6403,-0.6426,-0.64,-0.642,-0.6421,-0.6417,-0.647,-0.6478,-0.6517,-0.6453,-0.6454,-0.6455,0,-0.6327,-0.6338,-0.6371,-0.6377,-0.6383,-0.6398,-0.6411,-0.6423,-0.6432,-0.6432,-0.6441,-0.6434,-0.6455,-0.6436,-0.6465,-0.6448,-0.6456,-0.6458,-0.646,-0.646,-0.6439,-0.6472,-0.6529,-0.6535,-0.6463,-0.6463,-0.6462,0,-0.6361,-0.6383,-0.6406,-0.6411,-0.6419,-0.643,-0.6434,-0.6442,-0.6451,-0.6462,-0.6468,-0.6482,-0.6489,-0.6501,-0.6499,-0.6485,-0.6528,-0.6509,-0.6529,-0.6529,-0.6537,-0.6537,-0.6596,-0.6544,-0.6544,-0.6544,-0.6544,0,-0.6403,-0.6423,-0.6421,-0.6435,-0.6458,-0.6454,-0.6477,-0.648,-0.6487,-0.6502,-0.6494,-0.6509,-0.6506,-0.652,-0.6519,-0.6544,-0.6547,-0.6548,-0.6547,-0.6548,-0.6548,-0.6553,-0.655,-0.6545,-0.6545,-0.6545,-0.6544,0,-0.6443,-0.6443,-0.6467,-0.6473,-0.6475,-0.6492,-0.6498,-0.6512,-0.6513,-0.6532,-0.6537,-0.6538,-0.6556,-0.6555,-0.6575,-0.6574,-0.6604,-0.6601,-0.6601,-0.66,-0.662,-0.6618,-0.6683,-0.6692,-0.6635,-0.6635,-0.6636,0,-0.6469,-0.6485,-0.6493,-0.6503,-0.6508,-0.6523,-0.6532,-0.6529,-0.6539,-0.6551,-0.6564,-0.658,-0.6593,-0.6621,-0.6625,-0.664,-0.6637,-0.6659,-0.6639,-0.664,-0.6637,-0.6636,-0.6638,-0.6662,-0.6663,-0.6664,-0.6664,0,-0.6516,-0.6515,-0.6528,-0.6542,-0.6553,-0.6564,-0.6574,-0.6582,-0.6581,-0.6593,-0.661,-0.662,-0.6641,-0.6657,-0.6673,-0.6678,-0.6671,-0.6671,-0.6676,-0.6677,-0.6676,-0.6677,-0.6611,-0.6669,-0.6668,-0.6668,-0.6668,-0.6667,-0.655,-0.6564,-0.6572,-0.6587,-0.6595,-0.6604,-0.6618,-0.6621,-0.6635,-0.6652,-0.665,-0.6669,-0.6679,-0.6699,-0.6706,-0.6722,-0.6714,-0.6722,-0.6724,-0.6726,-0.6728,-0.6674,-0.6725,-0.6725,-0.6725,-0.6725,-0.6724,0,-0.6596,-0.6601,-0.6616,-0.663,-0.6642,-0.6635,-0.6646,-0.6657,-0.6674,-0.6684,-0.6697,-0.6718,-0.6735,-0.6741,-0.6757,-0.6769,-0.6767,-0.6774,-0.6772,-0.6774,-0.6734,-0.6727,-0.6776,-0.6776,-0.6776,-0.6775,-0.6775,-0.6775,-0.6621,-0.6644,-0.6645,-0.6672,-0.6678,-0.6696,-0.6703,-0.6713,-0.6721,-0.6744,-0.6758,-0.6762,-0.677,-0.6788,-0.6803,-0.6805,-0.6811,-0.6819,-0.682,-0.6782,-0.6777,-0.6772,-0.6765,-0.6821,-0.6821,-0.6858,-0.6859,-0.6859]},{"header":{"parameterUnit":"m.s-1","parameterCategory":1,"la1":30.2991,"la2":30.254,"lo1":-89.0895,"lo2":-89.0444,"dx":0.0017,"dy":0.0017,"nx":28,"ny":28,"refTime":"2022-12-03T09:00:00:Z","depth":0,"parameterNumber":3,"parameterNumberName":"V-component_of_WINDS"},"data":[0,0,0,0,0,0,0,0,0,0,0,0,0,0,0,0,0,0,0,0,0,0,0,0,0,0,0,0,0,0,0,0,0,0,0,0,0,0,0,0,0,0,0,0,0,0,0,0,0,0,0,0,0,0,0,0,0,0,0.6908,0.6908,0,0.6958,0.6958,0.6959,0.7006,0.7007,0.7008,0.7008,0.7058,0.7058,0.7059,0,0,0,0,0,0,0,0,0,0,0,0,0,0.6852,0.6852,0.6908,0.6908,0.6909,0.6958,0.6958,0.6959,0.7006,0.7007,0.7008,0.7008,0.7057,0.7058,0.7059,0,0,0,0,0,0,0,0,0,0,0,0,0,0.6886,0.6853,0.6908,0.6938,0.6942,0.6958,0.6958,0.6959,0.7006,0.7007,0.7008,0.7009,0.7057,0.7058,0.7059,0.7048,0,0,0.7063,0.7063,0,0,0,0,0,0,0,0,0.6884,0.6888,0.6933,0.6936,0.694,0.6977,0.6957,0.6989,0.7006,0.6982,0.7008,0.7009,0.703,0.7033,0.7041,0.7051,0.7053,0.7063,0.7064,0.7064,0.7064,0,0,0,0,0,0,0,0.6882,0.6886,0.6927,0.6934,0.6938,0.6949,0.6955,0.6963,0.7,0.6984,0.6987,0.6993,0.7032,0.704,0.7042,0.7053,0.7063,0.7064,0.7065,0.7065,0.7056,0.7055,0,0,0,0,0,0,0.6875,0.6884,0.6926,0.6929,0.6914,0.695,0.6956,0.6964,0.7,0.7007,0.6992,0.6995,0.7037,0.7041,0.7044,0.7033,0.7064,0.7065,0.7066,0.7057,0.7056,0.7055,0,0,0,0,0,0,0.6873,0.6878,0.6924,0.6907,0.6914,0.695,0.6958,0.6965,0.6972,0.7006,0.7013,0.6993,0.7038,0.7043,0.7047,0.7035,0.7066,0.7067,0.7058,0.7057,0.7055,0.7011,0,0,0,0,0,0,0.6871,0.6877,0.6874,0.6907,0.6915,0.6926,0.6957,0.6965,0.6974,0.6978,0.7009,0.7015,0.7039,0.7045,0.7048,0.7037,0.7068,0.7059,0.7057,0.7056,0.7013,0.7008,0.7003,0,0,0,0,0,0.6869,0.6859,0.6873,0.6878,0.6911,0.6925,0.693,0.6958,0.6973,0.697,0.6991,0.7014,0.7036,0.7045,0.7049,0.7038,0.706,0.7058,0.7056,0.7015,0.7009,0.7003,0,0,0,0,0,0,0.6823,0.6864,0.688,0.688,0.6899,0.6933,0.693,0.695,0.6965,0.6968,0.7003,0.7009,0.7009,0.7024,0.7033,0.7029,0.7051,0.705,0.7019,0.7013,0.7008,0.7004,0.7069,0,0,0,0,0,0.6813,0.6821,0.6856,0.6853,0.6862,0.6894,0.6901,0.6922,0.6942,0.695,0.6972,0.6991,0.7002,0.7009,0.7021,0.7016,0.7023,0.7011,0.7006,0.7001,0.7,0.6997,0.6992,0.7048,0.7048,0.7048,0,0,0.6791,0.6815,0.6818,0.6844,0.6861,0.6868,0.69,0.6907,0.6912,0.6951,0.6956,0.6973,0.6996,0.6996,0.6996,0.7008,0.6986,0.6999,0.6995,0.6996,0.6995,0.6989,0.6985,0.7047,0.7047,0.7047,0,0,0.6756,0.6775,0.6775,0.6791,0.6816,0.6838,0.6837,0.6869,0.6882,0.6888,0.6917,0.6924,0.6942,0.6957,0.6967,0.6938,0.6959,0.6941,0.6915,0.6912,0.6908,0.6904,0.6893,0.6889,0.6939,0.6939,0.6939,0,0.6727,0.674,0.6771,0.6776,0.6786,0.6822,0.6821,0.6835,0.6863,0.6869,0.6882,0.6906,0.6924,0.6927,0.692,0.6928,0.6928,0.6938,0.6906,0.6903,0.69,0.6889,0.6885,0.6937,0.6937,0.6937,0.6938,0,0.6702,0.671,0.6706,0.6732,0.6743,0.6744,0.6776,0.6782,0.6801,0.6821,0.6827,0.685,0.6867,0.6869,0.6888,0.6875,0.6882,0.69,0.6922,0.6891,0.6882,0.6879,0.6933,0.6934,0.6935,0.6936,0,0,0.6638,0.6682,0.668,0.6692,0.6723,0.673,0.6733,0.6751,0.6755,0.6773,0.6776,0.6791,0.6808,0.6819,0.6841,0.6838,0.6813,0.6857,0.6858,0.6847,0.6799,0.6784,0.6779,0.6827,0.6827,0.6826,0.6796,0,0.6608,0.6616,0.6645,0.6644,0.6652,0.6686,0.6689,0.6708,0.6726,0.6735,0.6756,0.6766,0.6788,0.6795,0.6795,0.6816,0.6803,0.6819,0.6829,0.6829,0.6822,0.6774,0.6759,0.673,0.6793,0.6793,0.6792,0,0.6574,0.659,0.659,0.662,0.6624,0.6626,0.6645,0.6653,0.6675,0.6688,0.6701,0.6725,0.6729,0.6751,0.6757,0.6767,0.6773,0.6784,0.6784,0.6785,0.6808,0.6774,0.6721,0.6717,0.6787,0.6787,0.6788,0,0.6526,0.6548,0.6551,0.6561,0.6596,0.6596,0.6611,0.6634,0.6642,0.6658,0.6664,0.668,0.6688,0.6699,0.6726,0.674,0.6729,0.6753,0.674,0.6739,0.6736,0.6735,0.6683,0.6741,0.6741,0.6741,0.6741,0,0.6489,0.6488,0.653,0.6532,0.6531,0.6564,0.6562,0.658,0.66,0.6605,0.6636,0.664,0.6676,0.6684,0.6705,0.6706,0.671,0.6721,0.6726,0.6717,0.6716,0.6721,0.6724,0.674,0.674,0.674,0.674,0,0.6436,0.6465,0.647,0.6503,0.6511,0.6509,0.6537,0.654,0.6561,0.6567,0.657,0.6603,0.6614,0.6642,0.666,0.6674,0.667,0.6681,0.6662,0.6666,0.6651,0.6651,0.6599,0.6593,0.6656,0.6655,0.6654,0,0.641,0.641,0.6443,0.6449,0.6462,0.6472,0.6481,0.6513,0.6521,0.6545,0.6545,0.6558,0.6571,0.6587,0.6611,0.6625,0.6636,0.6617,0.6638,0.6629,0.6635,0.6634,0.6634,0.6611,0.6611,0.661,0.6609,0,0.636,0.6375,0.6387,0.6403,0.6413,0.6428,0.6444,0.6447,0.6483,0.649,0.6502,0.6512,0.6531,0.6544,0.6561,0.6576,0.6598,0.6603,0.66,0.6591,0.658,0.6585,0.6649,0.6603,0.6604,0.6605,0.6605,0.6605,0.632,0.6321,0.6344,0.6357,0.6372,0.6387,0.6391,0.6412,0.6423,0.6441,0.6459,0.6469,0.649,0.6517,0.6529,0.6537,0.6549,0.6545,0.6544,0.6543,0.6538,0.658,0.6541,0.6541,0.6541,0.6541,0.6541,0,0.6271,0.6288,0.6299,0.6321,0.633,0.6351,0.637,0.6377,0.6385,0.6403,0.6415,0.6428,0.6441,0.6467,0.6481,0.6482,0.6493,0.6485,0.6485,0.6487,0.6528,0.6528,0.6476,0.6476,0.6476,0.6476,0.6476,0.6476,0.6247,0.625,0.6267,0.6277,0.6294,0.6304,0.6313,0.6327,0.6341,0.6355,0.6366,0.6383,0.6404,0.642,0.6432,0.644,0.6443,0.6432,0.6442,0.6479,0.6485,0.6491,0.6491,0.6432,0.6432,0.6401,0.6401,0.6401]}]]